Location: Lecco
(45.8566°N, 9.3977°E)
Time: 13:00:32
(UTC+02:00)

Explorer 11/Cluster Stage 4 - Pass Details

Date: 14 August 2020
Orbit: 467 x 1258 km, 28.8° (Epoch: 24 September)

Event Time Altitude Azimuth Distance (km) Brightness Sun altitude
Rises 22:03:51 0° 222° (SW) 3,921 10.2 -14.7°
Reaches altitude 10° 22:07:31 10° 205° (SSW) 3,074 9.5 -15.2°
Maximum altitude 22:12:30 18° 165° (SSE) 2,593 8.7 -15.8°
Enters shadow 22:13:24 18° 157° (SSE) 2,626 8.7 -16.0°
Drops below altitude 10° 22:17:41 10° 126° (SE) 3,228 - -16.5°
Sets 22:21:39 0° 109° (ESE) 4,191 - -17.0°
